When you browse on this site, cookies collect data to enhance your experience and personalize the content and advertising you see.
Visit our Privacy Policy to learn more. By continuing to use the site, you agree to this use of cookies and data.
  • In Spain
  • List of Countries
  • For 7 days
  • Water Temperature
  • Weather Map
  • Weather Widgets
  • user-avatar
    Login

    Hourly Weather Hmeliny

    Today, 19 August, Monday

    Time Temperature Precipitation Wind Pressure Humidity
    00:00 +14°C° 0 mm 3 mps 741 mmHg 97%
    01:00 +14°C° 0 mm 3 mps 741 mmHg 97%
    02:00 +13°C° 0 mm 3 mps 742 mmHg 96%
    03:00 +13°C° 0 mm 3 mps 742 mmHg 96%
    04:00 +13°C° 0 mm 3 mps 742 mmHg 97%
    05:00 +13°C° 0 mm 3 mps 742 mmHg 97%
    06:00 +16°C° 0 mm 3 mps 743 mmHg 92%
    07:00 +17°C° 0 mm 3 mps 743 mmHg 87%
    08:00 +19°C° 0 mm 3 mps 743 mmHg 82%
    09:00 +20°C° 0 mm 3 mps 744 mmHg 76%
    10:00 +21°C° 0 mm 3 mps 744 mmHg 71%
    11:00 +22°C° 0 mm 3 mps 744 mmHg 65%
    12:00 +24°C° 0 mm 3 mps 744 mmHg 63%
    13:00 +25°C° 0 mm 3 mps 744 mmHg 61%
    14:00 +25°C° 0 mm 2 mps 745 mmHg 59%
    15:00 +25°C° 0 mm 2 mps 745 mmHg 63%
    16:00 +25°C° 0 mm 2 mps 745 mmHg 66%
    17:00 +25°C° 0 mm 1 mps 745 mmHg 70%
    18:00 +23°C° 0 mm 1 mps 745 mmHg 74%
    19:00 +21°C° 0 mm 1 mps 745 mmHg 78%
    20:00 +20°C° 0 mm 1 mps 746 mmHg 82%
    21:00 +19°C° 0 mm 1 mps 746 mmHg 84%
    22:00 +18°C° 0 mm 1 mps 746 mmHg 85%
    23:00 +18°C° 0 mm 1 mps 746 mmHg 87%

    Tomorrow, 20 August, Tuesday

    Time Temperature Precipitation Wind Pressure Humidity
    00:00 +18°C° 0 mm 1 mps 746 mmHg 87%
    01:00 +16°C° 0 mm 1 mps 746 mmHg 87%
    02:00 +15°C° 0 mm 0 mps 746 mmHg 87%
    03:00 +15°C° 0 mm 0 mps 746 mmHg 86%
    04:00 +15°C° 0 mm 0 mps 746 mmHg 86%
    05:00 +15°C° 0 mm 0 mps 747 mmHg 86%
    06:00 +16°C° 0 mm 0 mps 747 mmHg 80%
    07:00 +18°C° 0 mm 0 mps 747 mmHg 75%
    08:00 +20°C° 0 mm 0 mps 747 mmHg 69%
    09:00 +23°C° 0 mm 1 mps 747 mmHg 65%
    10:00 +24°C° 0 mm 1 mps 747 mmHg 60%
    11:00 +26°C° 0 mm 1 mps 747 mmHg 56%
    12:00 +26°C° 0 mm 1 mps 747 mmHg 54%
    13:00 +27°C° 0 mm 1 mps 747 mmHg 52%
    14:00 +27°C° 0 mm 1 mps 747 mmHg 50%
    15:00 +27°C° 0 mm 1 mps 747 mmHg 54%
    16:00 +27°C° 0 mm 1 mps 747 mmHg 58%
    17:00 +26°C° 0 mm 1 mps 747 mmHg 62%
    18:00 +23°C° 0 mm 0 mps 747 mmHg 65%
    19:00 +21°C° 0 mm 0 mps 747 mmHg 68%
    20:00 +19°C° 0 mm 0 mps 747 mmHg 72%
    21:00 +19°C° 0 mm 0 mps 747 mmHg 73%
    22:00 +18°C° 0 mm 0 mps 747 mmHg 74%
    23:00 +18°C° 0 mm 0 mps 747 mmHg 74%

    Day after tomorrow, 21 August, Wednesday

    Time Temperature Precipitation Wind Pressure Humidity
    00:00 +17°C° 0 mm 0 mps 748 mmHg 76%
    01:00 +17°C° 0 mm 0 mps 748 mmHg 77%
    02:00 +17°C° 0 mm 0 mps 748 mmHg 78%
    03:00 +17°C° 0 mm 0 mps 748 mmHg 79%
    04:00 +17°C° 0 mm 0 mps 748 mmHg 80%
    05:00 +16°C° 0 mm 0 mps 748 mmHg 80%
    06:00 +18°C° 0 mm 0 mps 748 mmHg 76%
    07:00 +20°C° 0 mm 0 mps 748 mmHg 71%
    08:00 +22°C° 0 mm 0 mps 749 mmHg 67%
    09:00 +23°C° 0 mm 0 mps 748 mmHg 64%
    10:00 +24°C° 0 mm 0 mps 748 mmHg 60%
    11:00 +27°C° 0 mm 1 mps 748 mmHg 57%
    12:00 +28°C° 0 mm 1 mps 748 mmHg 56%
    13:00 +28°C° 0 mm 1 mps 748 mmHg 54%
    14:00 +28°C° 0 mm 1 mps 748 mmHg 53%
    15:00 +28°C° 0 mm 1 mps 747 mmHg 57%
    16:00 +28°C° 0 mm 1 mps 747 mmHg 60%
    17:00 +28°C° 0 mm 1 mps 747 mmHg 64%
    18:00 +26°C° 0 mm 1 mps 747 mmHg 68%
    19:00 +24°C° 0 mm 1 mps 747 mmHg 72%
    20:00 +21°C° 0 mm 2 mps 747 mmHg 76%
    21:00 +22°C° 0 mm 1 mps 747 mmHg 78%
    22:00 +21°C° 0 mm 1 mps 747 mmHg 79%
    23:00 +21°C° 0 mm 1 mps 747 mmHg 81%

    22 August, Thursday

    Time Temperature Precipitation Wind Pressure Humidity
    00:00 +20°C° 0 mm 1 mps 747 mmHg 82%
    01:00 +20°C° 0 mm 1 mps 746 mmHg 83%
    02:00 +19°C° 0 mm 1 mps 746 mmHg 85%
    03:00 +19°C° 0 mm 1 mps 746 mmHg 85%
    04:00 +19°C° 0 mm 1 mps 746 mmHg 86%
    05:00 +19°C° 0 mm 1 mps 746 mmHg 86%
    06:00 +21°C° 0 mm 1 mps 746 mmHg 81%
    07:00 +22°C° 0 mm 1 mps 746 mmHg 76%
    08:00 +24°C° 0 mm 1 mps 746 mmHg 71%
    09:00 +25°C° 0 mm 1 mps 746 mmHg 67%
    10:00 +24°C° 0 mm 0 mps 746 mmHg 63%
    11:00 +26°C° 0 mm 0 mps 745 mmHg 59%
    12:00 +28°C° 0 mm 1 mps 745 mmHg 57%
    13:00 +28°C° 0 mm 1 mps 745 mmHg 55%
    14:00 +28°C° 0 mm 1 mps 745 mmHg 53%
    15:00 +28°C° 0 mm 1 mps 745 mmHg 56%
    16:00 +27°C° 0 mm 1 mps 744 mmHg 59%
    17:00 +27°C° 0 mm 1 mps 744 mmHg 62%
    18:00 +25°C° 0 mm 1 mps 744 mmHg 65%
    19:00 +24°C° 0 mm 1 mps 745 mmHg 68%
    20:00 +22°C° 0 mm 1 mps 745 mmHg 70%
    21:00 +22°C° 0 mm 1 mps 745 mmHg 74%
    22:00 +21°C° 0 mm 1 mps 745 mmHg 77%
    23:00 +20°C° 0 mm 2 mps 745 mmHg 80%

    23 August, Friday

    Time Temperature Precipitation Wind Pressure Humidity
    00:00 +19°C° 0 mm 2 mps 745 mmHg 84%
    01:00 +19°C° 0 mm 2 mps 745 mmHg 88%
    02:00 +18°C° 0 mm 2 mps 745 mmHg 92%
    03:00 +18°C° 0.3 mm 2 mps 745 mmHg 94%
    04:00 +18°C° 0.3 mm 3 mps 745 mmHg 95%
    05:00 +18°C° 0.3 mm 3 mps 745 mmHg 97%
    06:00 +18°C° 0.4 mm 3 mps 745 mmHg 95%
    07:00 +19°C° 0.4 mm 3 mps 745 mmHg 94%
    08:00 +19°C° 0.4 mm 3 mps 746 mmHg 93%
    09:00 +19°C° 1.1 mm 3 mps 746 mmHg 93%
    10:00 +19°C° 1.1 mm 3 mps 746 mmHg 93%
    11:00 +19°C° 1.1 mm 3 mps 746 mmHg 92%
    12:00 +19°C° 1.8 mm 3 mps 746 mmHg 93%
    13:00 +18°C° 1.8 mm 4 mps 746 mmHg 93%
    14:00 +18°C° 1.8 mm 4 mps 746 mmHg 94%
    15:00 +18°C° 0.4 mm 4 mps 746 mmHg 94%
    16:00 +18°C° 0.4 mm 4 mps 746 mmHg 93%
    17:00 +17°C° 0.4 mm 4 mps 746 mmHg 93%
    18:00 +17°C° 0 mm 3 mps 746 mmHg 93%
    19:00 +16°C° 0 mm 3 mps 747 mmHg 93%
    20:00 +16°C° 0 mm 2 mps 747 mmHg 94%
    21:00 +16°C° 0 mm 2 mps 747 mmHg 93%
    22:00 +14°C° 0 mm 3 mps 747 mmHg 93%
    23:00 +14°C° 0 mm 3 mps 748 mmHg 92%

    24 August, Saturday

    Time Temperature Precipitation Wind Pressure Humidity
    00:00 +13°C° 0 mm 3 mps 748 mmHg 93%
    01:00 +13°C° 0 mm 3 mps 748 mmHg 93%
    02:00 +12°C° 0 mm 3 mps 748 mmHg 93%
    03:00 +12°C° 0 mm 3 mps 748 mmHg 92%
    04:00 +12°C° 0 mm 3 mps 748 mmHg 91%
    05:00 +12°C° 0 mm 3 mps 749 mmHg 91%
    06:00 +13°C° 0 mm 3 mps 749 mmHg 86%
    07:00 +16°C° 0 mm 3 mps 749 mmHg 82%
    08:00 +17°C° 0 mm 3 mps 749 mmHg 77%
    09:00 +18°C° 0 mm 3 mps 749 mmHg 71%
    10:00 +20°C° 0 mm 3 mps 749 mmHg 66%
    11:00 +21°C° 0 mm 3 mps 750 mmHg 60%
    12:00 +21°C° 0 mm 3 mps 750 mmHg 59%
    13:00 +22°C° 0 mm 3 mps 749 mmHg 58%
    14:00 +22°C° 0 mm 3 mps 749 mmHg 58%
    15:00 +22°C° 0 mm 3 mps 749 mmHg 62%
    16:00 +21°C° 0 mm 3 mps 749 mmHg 66%
    17:00 +21°C° 0 mm 2 mps 749 mmHg 70%
    18:00 +19°C° 0 mm 2 mps 749 mmHg 73%
    19:00 +18°C° 0 mm 2 mps 749 mmHg 75%
    20:00 +16°C° 0 mm 2 mps 750 mmHg 78%
    21:00 +16°C° 0 mm 2 mps 750 mmHg 79%
    22:00 +15°C° 0 mm 1 mps 750 mmHg 81%
    23:00 +15°C° 0 mm 1 mps 750 mmHg 82%
    Show more